User: anonymous   Login
Location: Jetmore Oil Field
(38.1181°N, 99.9337°W)
Time: 21:02:07
(UTC+00:00)
Language:

STARLINK-2708 - Orbit

View from above orbital plane
View from above orbital plane
View from above satellite
View from above satellite

Ground track
Ground track

The orbit data is extracted from the following two-line orbital elements,

1 48661U 21044Z   21266.50001157 -.00032728  00000-0 -21877-2 0  9993
2 48661  53.0537 220.8303 0001523  62.4872 288.9163 15.06410553 19342
Epoch (UTC): 23 September 2021 12:00:01
Eccentricity: 0.0001523
inclination: 53.0537°
perigee height: 546 km
apogee height: 548 km
right ascension of ascending node: 220.8303°
argument of perigee: 62.4872°
revolutions per day: 15.06410553
mean anomaly at epoch: 288.9163°
orbit number at epoch: 1934

The dashed part of the orbit path shows where the satellite is in the earth's shadow,  

DLR